SCP
0 0 0 0 0 0 0 0 0 0 0 0 0 0 0 0 0 0 0 0 0 0 0 0 0 0 0 0 0 0 0 0 0 0 0 0 0 0 0 0 0 0 0 0 0
0 0 0 0 0 0 0 0 0 0 0 0 0 0 0 0 0 0 0 0 0 0 0 0 0 0 0 0 0 0 0 0 0 0 0 0 0 0 0 0 0 0 0 0 0
0 0 0 0 0 0 0 0 0 0 0 0 0 0 0 0 0 0 0 0 0 0 0 0 0 0 0 0 0 0 0 0 0 0 0 0 0 0 0 0 0 0 0 0 0
0 0 0 0 0 0 0 0 0 0 0 0 0 0 0 0 0 0 0 0 0 0 0 0 0 0 0 0 0 0 0 0 0 0 0 0 0 0 0 0 0 0 0 0 0
0 0 0 0 0 0 0 0 0 0 0 0 0 0 0 0 0 0 0 0 0 0 0 0 0 0 0 0 0 0 0 0 0 0 0 0 0 0 0 0 0 0 0 0 0
0 0 0 0 0 0 0 0 0 0 0 0 0 0 0 0 0 0 0 0 0 0 0 0 0 0 0 0 0 0 0 0 0 0 0 0 0 0 0 0 0 0 0 0 0
0 0 0 0 0 0 0 0 0 0 0 0 0 0 0 0 0 0 0 0 0 0 0 0 0 0 0 0 0 0 0 0 0 0 0 0 0 0 0 0 0 0 0 0 0
0 0 0 0 0 0 0 0 0 0 0 -0 0 0 0 0 0 0 0 0 0 0 0 0 0 0 0 0 0 0 0 0 0 0 0 0 0 0 0 0 0 0 0 0 0
0 0 0 0 0 0 0 0 0 0 0 0 0 0 0 0 0 0 0 0 0 0 0 0 0 0 0 0 0 0 0 0 0 0 0 0 0 0 0 0 0 0 0 0 0
0 0 0 0 0 0 0 0 0 0 0 0 0 0 0 0 0 0 0 0 0 0 0 0 0 0 0 0 0 0 0 0 0 0 0 0 0 0 0 0 0 0 0 0 0
0 0 0 0 0 0 0 0 0 0 0 0 0 0 0 0 0 0 0 0 0 0 0 0 0 0 0 0 0 0 0 0 0 0 0 0 0 0 0 0 0 0 0 0 0
0 0 0 0 0 0 0 0 0 0 0 0 0 0 0 0 0 0 0 0 0 0 0 0 0 0 0 0 0 0 0 0 0 0 0 0 0 0 0 0 0 0 0 0 0
0 0 0 0 0 0 0 0 0 0 0 0 0 0 0 0 0 0 0 0 0 0 0 0 0 0 0 0 0 0 0 0 0 0 0 0 -0 0 0 0 0 0 0 0 0
0 0 0 0 0 0 0 0 0 0 0 0 0 0 0 0 0 0 0 0 0 0 0 0 0 0 0 0 0 0 0 0 0 0 0 0 -0 0 0 0 0 0 0 0 0
0 0 0 0 0 0 0 0 0 0 0 0 0 0 0 0 0 0 0 0 0 0 0 0 0 0 0 0 0 0 0 0 0 0 0 0 0 -0 -0 0 0 0 0 0 0
0 0 0 0 0 0 0 0 0 0 0 0 0 0 0 0 0 0 0 0 0 0 0 0 0 0 0 0 0 0 0 0 0 0 0 0 0 -0 -0 -0 -0 0 0 0 0
0 0 0 0 0 0 0 0 0 0 0 0 0 0 0 0 0 0 0 0 0 0 0 0 0 0 0 0 0 0 0 0 0 0 0 0 0 0 0 -0 -0 0 0 0 0
0 0 0 0 0 0 0 0 0 0 0 0 0 0 0 0 0 0 0 0 0 0 0 0 0 0 0 0 0 0 0 0 0 0 0 0 0 0 -0 0 -0 0 0 0 0
0 0 0 0 0 0 0 0 0 0 0 0 0 0 0 0 0 0 0 0 0 0 0 0 0 0 0 0 0 0 0 0 0 0 0 0 0 -0 0 0 0 0 0 0 0
0 0 0 0 0 0 0 0 -0 0 0 0 0 0 0 0 0 0 0 0 0 0 0 0 0 0 0 0 0 0 0 0 0 0 0 0 0 -0 0 0 0 0 0 0 0
0 0 0 0 0 0 0 0 0 0 0 0 0 0 0 0 0 0 0 0 0 0 0 0 0 0 0 0 0 0 0 0 0 0 0 0 0 -0 -0 0 0 0 0 0 0
0 0 0 0 0 0 0 0 0 0 0 0 0 0 0 0 0 0 0 0 0 0 0 0 0 0 0 0 0 0 0 0 0 0 0 0 0 0 0 -0 -0 0 0 0 0
0 0 0 0 0 0 0 0 0 0 0 0 0 0 0 0 0 0 0 0 0 0 0 0 0 0 0 0 0 0 0 0 0 0 0 0 0 0 0 0 0 -0 -0 -0 -0
0 0 0 0 0 0 0 0 0 0 0 0 0 0 0 0 0 0 0 0 0 0 0 0 0 0 0 0 0 0 0 0 0 0 0 0 0 0 0 0 0 0 0 0 0
0 0 0 0 0 0 0 0 0 0 0 0 0 0 0 0 0 0 0 0 0 0 0 0 0 0 0 0 0 0 0 0 0 0 0 0 0 0 0 0 0 0 0 0 0
0 0 0 0 0 0 0 0 0 0 0 0 0 0 0 0 0 0 0 0 0 0 0 0 0 0 0 0 0 0 0 0 0 0 0 0 0 0 0 0 0 0 0 0 0
0 0 0 0 0 0 0 0 0 0 0 0 0 0 0 0 0 0 0 0 0 0 0 0 0 0 0 0 0 0 0 0 0 0 0 0 0 0 0 0 0 0 0 0 0
Wind_Speed_500mb
42 41 40 33 31 29 27 24 22 21 19 19 19 20 20 22 22 22 29 30 28 29 32 27 15 8 7 9 10 12 10 17 19 18 15 24 23 14 16 11 15 17 7 11 33
49 39 43 40 34 32 27 30 26 23 21 21 20 17 13 16 20 25 23 24 25 25 24 21 18 11 5 8 8 12 10 16 7 15 11 25 25 25 16 19 17 15 20 16 33
48 50 38 44 41 43 38 33 33 27 24 22 21 20 19 18 21 11 14 20 29 28 22 20 18 19 11 10 11 9 11 6 4 9 2 16 16 16 19 22 29 34 29 28 34
44 50 44 44 41 41 47 43 34 36 28 25 22 19 16 15 9 6 4 11 16 26 25 21 16 15 14 14 12 9 8 7 1 6 7 10 11 12 25 12 19 22 22 32 35
46 40 45 51 45 43 44 48 42 37 37 30 25 22 18 14 21 15 4 4 8 22 24 23 19 11 13 11 14 13 9 12 4 6 4 5 10 11 21 24 16 16 26 32 36
41 38 40 38 52 50 47 46 45 39 30 36 30 27 26 17 21 27 22 10 2 19 26 24 18 15 7 5 15 9 10 8 6 9 6 9 9 6 18 24 19 24 23 32 39
41 48 41 45 41 53 51 49 41 38 36 38 37 34 30 28 20 22 24 23 11 15 26 24 17 17 16 9 4 6 5 2 14 12 8 7 21 22 43 21 18 28 25 33 42
55 39 48 39 42 36 49 46 38 38 36 36 46 40 20 33 42 26 21 26 20 11 15 26 20 16 9 18 7 5 3 9 8 17 8 18 33 24 33 33 41 40 32 33 39
48 51 42 45 41 41 36 39 35 32 27 29 47 37 12 21 41 39 36 19 22 15 15 29 18 11 14 16 8 6 6 20 7 14 2 22 12 24 18 28 34 41 45 43 42
46 50 50 39 41 42 37 34 30 28 27 27 25 25 16 19 22 36 40 38 21 26 18 17 11 13 16 21 19 18 13 9 9 6 9 14 32 30 21 10 27 33 43 47 47
45 48 52 56 37 37 43 28 20 17 38 24 21 9 3 22 26 22 44 42 26 23 18 20 17 28 35 34 6 11 13 11 4 3 5 25 33 42 38 32 45 52 49 41 53
50 48 49 56 54 36 52 55 30 10 17 49 22 32 17 30 11 24 43 29 28 22 21 13 33 22 23 21 21 12 13 12 10 4 7 21 35 42 45 49 51 51 53 60 62
46 51 47 53 58 44 54 56 42 22 11 19 51 47 27 28 11 35 45 21 24 22 33 22 4 27 23 22 23 20 22 11 8 17 9 20 40 43 28 24 50 57 58 59 68
47 48 45 47 47 56 54 52 32 27 9 23 26 34 30 21 6 28 44 20 9 26 20 18 10 28 27 29 25 24 16 16 13 8 12 10 21 20 14 22 18 34 48 56 56
39 45 48 55 50 58 45 48 57 20 13 26 25 24 48 38 28 25 54 15 19 23 16 12 23 27 31 27 28 7 20 18 15 15 15 12 12 7 5 13 29 42 40 37 35
30 44 42 52 59 53 43 35 52 12 17 15 25 30 30 43 26 22 31 14 11 11 6 3 2 18 20 19 32 21 19 13 7 3 13 17 15 22 15 15 17 27 25 25 21
25 49 46 52 72 52 51 53 12 13 6 15 19 28 51 30 25 24 24 13 21 12 15 4 8 7 14 20 20 22 30 6 6 8 12 3 17 26 8 16 17 11 17 18 25
25 30 45 59 59 64 58 15 21 29 12 3 23 29 42 41 24 22 25 21 33 15 16 21 12 22 19 18 22 34 31 11 15 11 3 7 20 9 15 21 32 29 32 30 27
20 24 34 62 59 59 48 24 18 9 32 25 29 26 22 24 22 30 27 21 35 34 23 18 16 14 25 12 29 33 24 15 8 3 4 11 15 19 26 30 31 32 28 31 27
19 16 33 52 65 68 24 37 6 6 9 38 35 26 27 36 26 35 30 36 29 42 18 11 6 1 14 9 11 23 24 10 10 11 12 16 17 20 7 13 10 2 12 10 16
18 7 17 54 71 56 19 20 19 17 5 23 39 22 36 23 33 30 28 21 51 40 45 13 8 6 15 26 35 16 23 11 10 12 10 10 15 7 29 19 3 14 5 6 8
20 5 7 35 21 14 20 16 28 17 18 6 5 13 29 40 34 38 39 38 48 51 40 36 10 16 27 13 31 38 32 32 14 18 20 15 21 12 8 10 14 7 8 1 6
16 9 8 40 12 13 8 12 9 14 13 11 9 8 11 30 29 36 37 41 35 44 34 29 17 17 13 11 9 24 38 43 36 4 29 19 24 13 14 22 19 15 11 8 7
16 7 11 36 20 6 20 14 24 21 13 12 12 5 10 11 6 18 38 27 36 49 39 46 19 35 39 43 20 29 42 42 40 22 34 31 50 45 33 22 14 10 14 9 6
23 11 16 10 18 26 7 21 23 18 20 22 5 21 18 14 18 17 9 18 21 28 37 22 20 32 41 42 29 34 43 48 46 49 36 45 51 62 46 41 44 46 36 36 31
24 11 11 3 10 27 28 16 35 17 33 20 14 41 33 22 24 28 27 14 2 11 23 16 12 12 27 42 40 35 34 44 51 54 52 50 48 56 67 63 53 48 49 43 48
50 39 21 21 13 11 12 45 46 36 30 32 46 14 23 41 9 2 14 14 13 21 15 12 6 12 43 21 28 36 49 44 42 46 47 51 58 60 60 46 54 55 50 46 44
Wind_Direction_500mb
246 244 240 239 234 240 243 244 243 245 248 256 257 257 268 279 282 271 259 254 255 256 255 249 262 284 228 201 178 168 213 220 214 192 197 164 188 174 191 171 185 192 188 171 174
243 244 240 239 236 246 248 245 243 242 241 244 251 253 264 281 284 276 257 241 238 246 246 242 228 230 198 178 179 210 222 226 210 198 204 179 198 175 176 183 208 199 204 185 181
252 246 245 236 239 245 250 249 244 239 241 241 246 250 255 270 302 247 247 244 235 232 238 229 213 194 197 179 183 180 229 226 232 211 216 183 199 183 197 202 204 207 198 197 191
252 247 246 247 239 241 248 253 249 237 233 239 243 245 244 241 245 211 243 256 237 219 221 212 189 180 189 190 183 198 196 179 244 197 182 188 172 204 217 202 204 211 197 207 205
250 250 248 251 244 246 245 243 246 243 229 231 231 237 231 223 232 208 170 15 224 199 206 200 183 168 195 178 159 218 166 192 174 177 184 189 210 229 237 233 237 219 217 216 216
250 250 247 256 246 241 248 244 244 241 241 224 226 222 218 222 240 232 230 230 256 193 200 189 193 169 141 178 210 182 174 155 181 203 235 234 229 193 242 237 234 232 230 224 223
258 252 254 247 256 243 245 240 241 237 242 233 223 222 219 234 232 228 220 214 203 194 196 187 175 165 147 144 142 116 176 181 210 203 222 212 241 226 240 239 231 235 231 231 231
259 245 247 241 237 236 234 231 228 232 240 241 222 214 225 240 229 215 212 209 203 172 186 179 165 155 145 129 87 177 272 235 178 186 213 199 254 225 240 231 237 239 238 233 232
245 248 247 238 229 235 225 220 222 227 234 232 203 195 226 236 231 221 211 199 202 182 162 174 163 160 143 160 144 162 214 223 270 208 172 209 264 263 239 220 234 239 240 238 236
247 233 243 244 235 227 227 221 211 218 220 215 237 178 211 216 218 216 204 206 184 173 148 165 184 183 185 192 201 193 198 208 221 139 232 234 249 254 250 253 250 242 239 241 241
249 236 227 234 245 225 225 219 190 215 210 192 193 159 176 196 181 194 189 177 170 172 188 186 201 205 194 200 220 205 208 206 180 144 242 243 255 265 263 251 252 253 253 251 250
249 243 227 222 238 226 217 216 198 194 205 216 213 191 150 163 136 172 173 171 181 189 163 175 224 205 184 187 196 211 218 227 260 215 244 276 265 270 262 247 244 246 248 247 250
243 237 226 221 219 229 214 212 219 217 238 196 208 200 173 166 158 179 176 174 188 185 192 206 147 181 178 182 190 215 228 206 272 323 268 308 278 253 255 258 245 245 244 247 248
246 228 222 213 211 221 215 210 196 197 226 197 192 206 205 141 184 186 179 169 173 199 184 226 171 186 196 203 197 217 202 221 244 283 262 8 288 260 243 268 241 241 237 243 246
234 226 213 205 202 209 213 211 205 192 215 178 170 186 188 195 142 194 189 188 177 169 181 183 175 178 196 202 190 196 172 193 214 234 296 225 255 239 137 250 257 253 247 246 248
247 217 206 204 210 213 199 200 199 183 222 151 142 169 162 185 196 143 173 192 146 150 60 137 108 202 203 168 185 140 124 95 113 211 255 217 225 263 236 224 255 257 262 245 254
278 212 209 203 207 200 193 165 206 205 156 157 162 169 183 180 158 163 167 180 165 156 191 123 181 181 179 145 172 176 164 142 196 201 254 142 209 254 258 229 245 269 271 257 271
290 211 208 207 209 204 198 193 223 194 191 322 167 178 190 179 186 164 163 178 218 206 162 183 209 181 184 196 179 187 180 184 208 201 232 169 236 263 250 261 265 277 278 281 281
273 258 219 210 209 202 184 223 205 196 173 177 170 174 190 190 170 180 182 200 201 202 206 192 228 197 186 162 153 185 210 211 105 76 270 222 263 251 250 257 259 260 267 274 280
255 265 236 216 200 192 202 224 243 262 275 187 181 178 186 183 192 188 179 204 211 204 223 189 167 298 177 198 217 187 165 161 219 204 236 246 271 246 218 201 131 12 274 309 252
234 247 225 217 195 192 207 214 193 174 266 220 198 177 197 174 185 187 192 206 205 193 204 184 234 122 153 209 186 177 189 202 195 219 232 266 259 233 229 250 161 123 221 259 257
202 199 228 189 191 193 200 182 196 157 168 248 277 184 185 182 192 200 204 210 197 188 197 200 232 214 202 202 225 212 202 183 189 202 234 263 248 164 156 141 172 162 10 181 218
185 180 242 188 236 197 178 178 157 162 174 154 211 228 179 189 202 193 201 219 198 181 183 176 214 214 197 221 191 216 219 211 226 284 212 214 254 188 227 263 263 247 221 187 162
155 166 201 203 223 263 171 194 195 195 174 155 161 162 162 194 271 205 217 214 196 200 197 175 209 214 226 231 187 206 211 217 217 222 233 230 263 251 246 258 277 178 169 186 240
193 208 185 184 223 215 217 162 172 183 216 176 140 182 180 170 167 192 237 220 193 198 190 193 218 219 235 242 232 219 208 213 216 221 223 234 241 261 255 257 252 255 258 259 264
174 184 199 218 126 200 202 206 186 176 173 194 195 198 190 194 192 197 186 173 170 179 184 204 211 182 242 243 244 242 228 220 215 223 228 240 246 257 264 266 265 249 254 258 264
208 208 186 209 192 182 209 212 212 195 205 217 213 187 205 221 203 304 200 183 193 178 220 256 230 209 238 231 235 240 226 219 222 224 227 234 238 252 259 255 259 254 253 261 263
Wind_Speed_850mb
42 41 40 33 31 29 27 24 22 21 19 19 19 20 20 22 22 22 29 30 28 29 32 27 15 8 7 9 10 12 10 17 19 18 15 24 23 14 16 11 15 17 7 11 33
49 39 43 40 34 32 27 30 26 23 21 21 20 17 13 16 20 25 23 24 25 25 24 21 18 11 5 8 8 12 10 16 7 15 11 25 25 25 16 19 17 15 20 16 33
48 50 38 44 41 43 38 33 33 27 24 22 21 20 19 18 21 11 14 20 29 28 22 20 18 19 11 10 11 9 11 6 4 9 2 16 16 16 19 22 29 34 29 28 34
44 50 44 44 41 41 47 43 34 36 28 25 22 19 16 15 9 6 4 11 16 26 25 21 16 15 14 14 12 9 8 7 1 6 7 10 11 12 25 12 19 22 22 32 35
46 40 45 51 45 43 44 48 42 37 37 30 25 22 18 14 21 15 4 4 8 22 24 23 19 11 13 11 14 13 9 12 4 6 4 5 10 11 21 24 16 16 26 32 36
41 38 40 38 52 50 47 46 45 39 30 36 30 27 26 17 21 27 22 10 2 19 26 24 18 15 7 5 15 9 10 8 6 9 6 9 9 6 18 24 19 24 23 32 39
41 48 41 45 41 53 51 49 41 38 36 38 37 34 30 28 20 22 24 23 11 15 26 24 17 17 16 9 4 6 5 2 14 12 8 7 21 22 43 21 18 28 25 33 42
55 39 48 39 42 36 49 46 38 38 36 36 46 40 20 33 42 26 21 26 20 11 15 26 20 16 9 18 7 5 3 9 8 17 8 18 33 24 33 33 41 40 32 33 39
48 51 42 45 41 41 36 39 35 32 27 29 47 37 12 21 41 39 36 19 22 15 15 29 18 11 14 16 8 6 6 20 7 14 2 22 12 24 18 28 34 41 45 43 42
46 50 50 39 41 42 37 34 30 28 27 27 25 25 16 19 22 36 40 38 21 26 18 17 11 13 16 21 19 18 13 9 9 6 9 14 32 30 21 10 27 33 43 47 47
45 48 52 56 37 37 43 28 20 17 38 24 21 9 3 22 26 22 44 42 26 23 18 20 17 28 35 34 6 11 13 11 4 3 5 25 33 42 38 32 45 52 49 41 53
50 48 49 56 54 36 52 55 30 10 17 49 22 32 17 30 11 24 43 29 28 22 21 13 33 22 23 21 21 12 13 12 10 4 7 21 35 42 45 49 51 51 53 60 62
46 51 47 53 58 44 54 56 42 22 11 19 51 47 27 28 11 35 45 21 24 22 33 22 4 27 23 22 23 20 22 11 8 17 9 20 40 43 28 24 50 57 58 59 68
47 48 45 47 47 56 54 52 32 27 9 23 26 34 30 21 6 28 44 20 9 26 20 18 10 28 27 29 25 24 16 16 13 8 12 10 21 20 14 22 18 34 48 56 56
39 45 48 55 50 58 45 48 57 20 13 26 25 24 48 38 28 25 54 15 19 23 16 12 23 27 31 27 28 7 20 18 15 15 15 12 12 7 5 13 29 42 40 37 35
30 44 42 52 59 53 43 35 52 12 17 15 25 30 30 43 26 22 31 14 11 11 6 3 2 18 20 19 32 21 19 13 7 3 13 17 15 22 15 15 17 27 25 25 21
25 49 46 52 72 52 51 53 12 13 6 15 19 28 51 30 25 24 24 13 21 12 15 4 8 7 14 20 20 22 30 6 6 8 12 3 17 26 8 16 17 11 17 18 25
25 30 45 59 59 64 58 15 21 29 12 3 23 29 42 41 24 22 25 21 33 15 16 21 12 22 19 18 22 34 31 11 15 11 3 7 20 9 15 21 32 29 32 30 27
20 24 34 62 59 59 48 24 18 9 32 25 29 26 22 24 22 30 27 21 35 34 23 18 16 14 25 12 29 33 24 15 8 3 4 11 15 19 26 30 31 32 28 31 27
19 16 33 52 65 68 24 37 6 6 9 38 35 26 27 36 26 35 30 36 29 42 18 11 6 1 14 9 11 23 24 10 10 11 12 16 17 20 7 13 10 2 12 10 16
18 7 17 54 71 56 19 20 19 17 5 23 39 22 36 23 33 30 28 21 51 40 45 13 8 6 15 26 35 16 23 11 10 12 10 10 15 7 29 19 3 14 5 6 8
20 5 7 35 21 14 20 16 28 17 18 6 5 13 29 40 34 38 39 38 48 51 40 36 10 16 27 13 31 38 32 32 14 18 20 15 21 12 8 10 14 7 8 1 6
16 9 8 40 12 13 8 12 9 14 13 11 9 8 11 30 29 36 37 41 35 44 34 29 17 17 13 11 9 24 38 43 36 4 29 19 24 13 14 22 19 15 11 8 7
16 7 11 36 20 6 20 14 24 21 13 12 12 5 10 11 6 18 38 27 36 49 39 46 19 35 39 43 20 29 42 42 40 22 34 31 50 45 33 22 14 10 14 9 6
23 11 16 10 18 26 7 21 23 18 20 22 5 21 18 14 18 17 9 18 21 28 37 22 20 32 41 42 29 34 43 48 46 49 36 45 51 62 46 41 44 46 36 36 31
24 11 11 3 10 27 28 16 35 17 33 20 14 41 33 22 24 28 27 14 2 11 23 16 12 12 27 42 40 35 34 44 51 54 52 50 48 56 67 63 53 48 49 43 48
50 39 21 21 13 11 12 45 46 36 30 32 46 14 23 41 9 2 14 14 13 21 15 12 6 12 43 21 28 36 49 44 42 46 47 51 58 60 60 46 54 55 50 46 44
Wind_Direction_850mb
246 244 240 239 234 240 243 244 243 245 248 256 257 257 268 279 282 271 259 254 255 256 255 249 262 284 228 201 178 168 213 220 214 192 197 164 188 174 191 171 185 192 188 171 174
243 244 240 239 236 246 248 245 243 242 241 244 251 253 264 281 284 276 257 241 238 246 246 242 228 230 198 178 179 210 222 226 210 198 204 179 198 175 176 183 208 199 204 185 181
252 246 245 236 239 245 250 249 244 239 241 241 246 250 255 270 302 247 247 244 235 232 238 229 213 194 197 179 183 180 229 226 232 211 216 183 199 183 197 202 204 207 198 197 191
252 247 246 247 239 241 248 253 249 237 233 239 243 245 244 241 245 211 243 256 237 219 221 212 189 180 189 190 183 198 196 179 244 197 182 188 172 204 217 202 204 211 197 207 205
250 250 248 251 244 246 245 243 246 243 229 231 231 237 231 223 232 208 170 15 224 199 206 200 183 168 195 178 159 218 166 192 174 177 184 189 210 229 237 233 237 219 217 216 216
250 250 247 256 246 241 248 244 244 241 241 224 226 222 218 222 240 232 230 230 256 193 200 189 193 169 141 178 210 182 174 155 181 203 235 234 229 193 242 237 234 232 230 224 223
258 252 254 247 256 243 245 240 241 237 242 233 223 222 219 234 232 228 220 214 203 194 196 187 175 165 147 144 142 116 176 181 210 203 222 212 241 226 240 239 231 235 231 231 231
259 245 247 241 237 236 234 231 228 232 240 241 222 214 225 240 229 215 212 209 203 172 186 179 165 155 145 129 87 177 272 235 178 186 213 199 254 225 240 231 237 239 238 233 232
245 248 247 238 229 235 225 220 222 227 234 232 203 195 226 236 231 221 211 199 202 182 162 174 163 160 143 160 144 162 214 223 270 208 172 209 264 263 239 220 234 239 240 238 236
247 233 243 244 235 227 227 221 211 218 220 215 237 178 211 216 218 216 204 206 184 173 148 165 184 183 185 192 201 193 198 208 221 139 232 234 249 254 250 253 250 242 239 241 241
249 236 227 234 245 225 225 219 190 215 210 192 193 159 176 196 181 194 189 177 170 172 188 186 201 205 194 200 220 205 208 206 180 144 242 243 255 265 263 251 252 253 253 251 250
249 243 227 222 238 226 217 216 198 194 205 216 213 191 150 163 136 172 173 171 181 189 163 175 224 205 184 187 196 211 218 227 260 215 244 276 265 270 262 247 244 246 248 247 250
243 237 226 221 219 229 214 212 219 217 238 196 208 200 173 166 158 179 176 174 188 185 192 206 147 181 178 182 190 215 228 206 272 323 268 308 278 253 255 258 245 245 244 247 248
246 228 222 213 211 221 215 210 196 197 226 197 192 206 205 141 184 186 179 169 173 199 184 226 171 186 196 203 197 217 202 221 244 283 262 8 288 260 243 268 241 241 237 243 246
234 226 213 205 202 209 213 211 205 192 215 178 170 186 188 195 142 194 189 188 177 169 181 183 175 178 196 202 190 196 172 193 214 234 296 225 255 239 137 250 257 253 247 246 248
247 217 206 204 210 213 199 200 199 183 222 151 142 169 162 185 196 143 173 192 146 150 60 137 108 202 203 168 185 140 124 95 113 211 255 217 225 263 236 224 255 257 262 245 254
278 212 209 203 207 200 193 165 206 205 156 157 162 169 183 180 158 163 167 180 165 156 191 123 181 181 179 145 172 176 164 142 196 201 254 142 209 254 258 229 245 269 271 257 271
290 211 208 207 209 204 198 193 223 194 191 322 167 178 190 179 186 164 163 178 218 206 162 183 209 181 184 196 179 187 180 184 208 201 232 169 236 263 250 261 265 277 278 281 281
273 258 219 210 209 202 184 223 205 196 173 177 170 174 190 190 170 180 182 200 201 202 206 192 228 197 186 162 153 185 210 211 105 76 270 222 263 251 250 257 259 260 267 274 280
255 265 236 216 200 192 202 224 243 262 275 187 181 178 186 183 192 188 179 204 211 204 223 189 167 298 177 198 217 187 165 161 219 204 236 246 271 246 218 201 131 12 274 309 252
234 247 225 217 195 192 207 214 193 174 266 220 198 177 197 174 185 187 192 206 205 193 204 184 234 122 153 209 186 177 189 202 195 219 232 266 259 233 229 250 161 123 221 259 257
202 199 228 189 191 193 200 182 196 157 168 248 277 184 185 182 192 200 204 210 197 188 197 200 232 214 202 202 225 212 202 183 189 202 234 263 248 164 156 141 172 162 10 181 218
185 180 242 188 236 197 178 178 157 162 174 154 211 228 179 189 202 193 201 219 198 181 183 176 214 214 197 221 191 216 219 211 226 284 212 214 254 188 227 263 263 247 221 187 162
155 166 201 203 223 263 171 194 195 195 174 155 161 162 162 194 271 205 217 214 196 200 197 175 209 214 226 231 187 206 211 217 217 222 233 230 263 251 246 258 277 178 169 186 240
193 208 185 184 223 215 217 162 172 183 216 176 140 182 180 170 167 192 237 220 193 198 190 193 218 219 235 242 232 219 208 213 216 221 223 234 241 261 255 257 252 255 258 259 264
174 184 199 218 126 200 202 206 186 176 173 194 195 198 190 194 192 197 186 173 170 179 184 204 211 182 242 243 244 242 228 220 215 223 228 240 246 257 264 266 265 249 254 258 264
208 208 186 209 192 182 209 212 212 195 205 217 213 187 205 221 203 304 200 183 193 178 220 256 230 209 238 231 235 240 226 219 222 224 227 234 238 252 259 255 259 254 253 261 263